Flag for U.S.A. Weather past 2 weeks in Albuquerque, New Mexico, U.S.A.

Now
57 °F

Passing clouds.


Feels Like: 53 °F
Forecast: 45 / 77 °F
Wind: 16 mph from East

Location: Albuquerque International Airport


UV Index: 0 (Low)

Visibility: 10 mi


Pressure: 29.98 "Hg

Humidity: 29%

Dew point: 25 °F

Location of AlbuquerqueLocation

Historic Weather in Albuquerque

°F

Albuquerque temperature yesterday

Maximum temperature yesterday: 68 °F (at 3:52 PM)
Minimum temperature yesterday: 47 °F (at 6:52 AM)
Average temperature yesterday: 58 °F

Past Weeks' High & Low Weather Summary

 TemperatureHumidityPressure
High80 °F (Apr 9, 4:52 PM)70% (Apr 7, 4:52 AM)30.25 "Hg (Apr 7, 4:52 AM)
Low33 °F (Apr 4, 5:52 AM)5% (Apr 10, 1:52 PM)29.42 "Hg (Apr 13, 3:52 PM)
Average55 °F25%29.89 "Hg
* Reported Apr 2 10:52 PM — Apr 17 10:52 PM, Albuquerque, Weather by CustomWeather, © 2014

Note: Actual official high and low records may vary slightly from our data, if they occured in-between our weather recording intervals... More about our weather records

Advertising

Historic Weather Conditions — Data for Previous 24 hours

 ConditionsComfort  
Time TempWeatherWind HumidityBarometerVisibility
10:52 PM
Apr 17
58 °FClear.21 mph28%29.99 "Hg10 mi
9:52 PM60 °FClear.16 mph26%29.98 "Hg10 mi
8:52 PM60 °FClear.12 mph23%29.97 "Hg10 mi
7:52 PM65 °FPassing clouds.5 mph18%29.94 "Hg10 mi
6:52 PM68 °FPassing clouds.9 mph16%29.92 "Hg10 mi
5:52 PM68 °FPassing clouds.7 mph17%29.93 "Hg10 mi
4:52 PM68 °FPassing clouds.10 mph17%29.93 "Hg10 mi
3:52 PM68 °FPartly sunny.5 mph18%29.94 "Hg10 mi
2:52 PM66 °FOvercast.8 mph20%29.96 "Hg10 mi
1:52 PM64 °FBroken clouds.3 mph22%29.98 "Hg10 mi
12:52 PM62 °FOvercast.No wind21%29.99 "Hg10 mi
11:52 AM61 °FPartly sunny.6 mph27%30.00 "Hg10 mi
10:52 AM56 °FPartly sunny.3 mph34%30.02 "Hg10 mi
9:52 AM55 °FScattered clouds.15 mph34%30.01 "Hg10 mi
8:52 AM52 °FPassing clouds.21 mph40%30.00 "Hg10 mi
7:52 AM49 °FSunny.6 mph46%29.98 "Hg10 mi
6:52 AM47 °FClear.18 mph52%29.93 "Hg10 mi
5:52 AM48 °FClear.12 mph50%29.90 "Hg10 mi
4:52 AM50 °FPassing clouds.12 mph44%29.87 "Hg10 mi
3:52 AM51 °FPassing clouds.6 mph35%29.85 "Hg10 mi
2:52 AM53 °FPassing clouds.7 mph32%29.83 "Hg10 mi
1:52 AM56 °FPassing clouds.9 mph32%29.81 "Hg10 mi
12:52 AM56 °FOvercast.7 mph29%29.82 "Hg10 mi
Weather by CustomWeather, © 2014

See weather overview